Location: Hamburg
(53.5500°N, 10.0000°E)
Time: 10:47:37
(UTC+01:00)

A-11 Canister half - All Passes

Search period start: 20 January 2017 00:00
Search period end: 30 January 2017 00:00
Orbit: 1528 x 1682 km, 47.3° (Epoch: 19 January)

Date Brightness Start Highest point End Pass type
(mag) Time Alt. Az. Time Alt. Az. Time Alt. Az.
20 Jan - 02:20:08 10° SE 02:23:26 12° SE 02:26:45 10° ESE visible
20 Jan - 04:17:47 10° SSW 04:26:01 36° SE 04:34:27 10° E visible
20 Jan - 06:20:37 10° WSW 06:29:49 58° S 06:39:20 10° E visible
20 Jan - 08:24:50 10° W 08:34:08 57° SSW 08:43:43 10° ESE daylight
20 Jan - 10:29:37 10° W 10:37:56 33° SW 10:46:27 10° SSE daylight
20 Jan - 12:38:38 10° WSW 12:40:31 11° WSW 12:42:24 10° SW daylight
21 Jan - 01:59:25 10° SE 02:01:59 11° ESE 02:04:34 10° ESE visible
21 Jan - 03:56:23 10° SSW 04:04:31 35° SE 04:12:50 10° E visible
21 Jan - 05:59:06 10° WSW 06:08:16 58° SSE 06:17:45 10° E visible
21 Jan - 08:03:18 10° W 08:12:35 57° SSW 08:22:09 10° ESE daylight
21 Jan - 10:08:02 10° W 10:16:24 34° SW 10:24:59 10° SSE daylight
21 Jan - 12:16:15 10° WSW 12:19:03 11° WSW 12:21:52 10° SW daylight
22 Jan - 01:39:04 10° SE 01:40:32 10° ESE 01:42:01 10° ESE visible
22 Jan - 03:34:58 10° SSW 03:43:00 34° SE 03:51:13 10° E visible
22 Jan - 05:37:35 10° WSW 05:46:43 57° SSE 05:56:09 10° E visible
22 Jan - 07:41:44 10° W 07:51:01 58° SSW 08:00:35 10° ESE visible
22 Jan - 09:46:26 10° W 09:54:52 36° SW 10:03:32 10° SSE daylight
22 Jan - 11:54:08 10° WSW 11:57:35 12° SW 12:01:05 10° SW daylight
23 Jan - 03:13:35 10° SSW 03:21:30 32° SE 03:29:34 10° E visible
23 Jan - 05:16:05 10° WSW 05:25:10 56° SSE 05:34:33 10° E visible
23 Jan - 07:20:12 10° W 07:29:27 58° S 07:39:00 10° ESE visible
23 Jan - 09:24:52 10° W 09:33:21 37° SSW 09:42:05 10° SSE daylight
23 Jan - 11:32:08 10° W 11:36:07 13° SW 11:40:09 10° SSW daylight
24 Jan - 02:52:13 10° SSW 03:00:00 31° SE 03:07:57 10° E visible
24 Jan - 04:54:34 10° WSW 05:03:37 55° SSE 05:12:58 10° E visible
24 Jan - 06:58:39 10° W 07:07:54 59° S 07:17:27 10° ESE visible
24 Jan - 09:03:17 10° W 09:11:50 38° SSW 09:20:36 10° SSE daylight
24 Jan - 11:10:14 10° W 11:14:39 14° SW 11:19:07 10° SSW daylight
25 Jan - 02:30:50 10° SSW 02:38:31 30° SE 02:46:19 10° E visible
25 Jan - 04:33:03 10° WSW 04:42:05 54° SSE 04:51:21 10° E visible
25 Jan - 06:37:06 10° W 06:46:20 59° S 06:55:52 10° ESE visible
25 Jan - 08:41:42 10° W 08:50:18 39° SSW 08:59:07 10° SSE daylight
25 Jan - 10:48:23 10° W 10:53:11 15° SW 10:58:03 10° SSW daylight
26 Jan - 02:09:28 10° SSW 02:17:01 29° SE 02:24:41 10° E visible
26 Jan - 04:11:33 10° SW 04:20:32 54° SSE 04:29:46 10° E visible
26 Jan - 06:15:34 10° W 06:24:47 60° S 06:34:17 10° ESE visible
26 Jan - 08:20:08 10° W 08:28:46 40° SSW 08:37:39 10° SSE daylight
26 Jan - 10:26:34 10° W 10:31:42 16° SW 10:36:55 10° SSW daylight
27 Jan - 01:48:07 10° SSW 01:55:32 28° SE 02:03:03 10° E visible
27 Jan - 03:50:04 10° SW 03:59:00 53° SSE 04:08:11 10° E visible
27 Jan - 05:54:01 10° W 06:03:13 60° S 06:12:43 10° ESE visible
27 Jan - 07:58:34 10° W 08:07:14 41° SSW 08:16:10 10° SE daylight
27 Jan - 10:04:47 10° W 10:10:13 17° SW 10:15:45 10° SSW daylight
28 Jan - 01:26:47 10° S 01:34:03 27° SE 01:41:24 10° E visible
28 Jan - 03:28:34 10° SW 03:37:28 52° SSE 03:46:36 10° E visible
28 Jan - 05:32:29 10° W 05:41:40 60° S 05:51:09 10° ESE visible
28 Jan - 07:37:01 10° W 07:45:42 42° SSW 07:54:39 10° SE daylight
28 Jan - 09:43:02 10° W 09:48:45 18° SW 09:54:33 10° SSW daylight
29 Jan - 01:05:27 10° S 01:12:34 25° SE 01:19:46 10° E visible
29 Jan - 03:07:04 10° SW 03:15:56 51° SSE 03:25:01 10° E visible
29 Jan - 05:10:57 10° W 05:20:07 60° S 05:29:34 10° ESE visible
29 Jan - 07:15:27 10° W 07:24:10 43° SSW 07:33:09 10° SE visible
29 Jan - 09:21:20 10° W 09:27:16 18° SW 09:33:19 10° S daylight
